SVA1432 OEJN-OEMA

Flight info

Callsign SVA1432
Flight time 0h 32m
Altitude 22000
Route OEJN/34C N0434F290 DATA2W DATAP A424 RULEB/N0418F280 A424 DEGVU DEGV1G OEMA/17
Aircraft A333/H-SDE3GHIJ2J3J5M1RVWXY/LB2D1

Departure

Time 2026-04-29 08:46
Airport King Abdulaziz International Airport (OEJN)

Arrival

Time 2026-04-29 09:18
Airport Prince Mohammad Bin Abdulaziz Airport (OEMA)
Time Latitude Longitude Altitude Speed Heading
2026-04-29 08:29 21.67139 39.16633 34 ft 0 kts 189°
2026-04-29 08:36 21.67151 39.16636 34 ft 0 kts 189°
2026-04-29 08:36 21.67177 39.16640 34 ft 4 kts 189°
2026-04-29 08:37 21.67202 39.16645 33 ft 4 kts 195°
2026-04-29 08:37 21.67225 39.16657 32 ft 4 kts 247°
2026-04-29 08:37 21.67229 39.16679 31 ft 0 kts 283°
2026-04-29 08:40 21.67237 39.16638 36 ft 8 kts 280°
2026-04-29 08:41 21.67257 39.16534 36 ft 16 kts 291°
2026-04-29 08:41 21.67328 39.16488 35 ft 18 kts 342°
2026-04-29 08:41 21.67455 39.16442 35 ft 20 kts 339°
2026-04-29 08:41 21.67562 39.16384 34 ft 12 kts 308°
2026-04-29 08:42 21.67562 39.16339 34 ft 6 kts 252°
2026-04-29 08:42 21.67539 39.16279 34 ft 9 kts 248°
2026-04-29 08:42 21.67504 39.16193 34 ft 17 kts 239°
2026-04-29 08:42 21.67442 39.16167 34 ft 7 kts 162°
2026-04-29 08:43 21.67326 39.16207 35 ft 31 kts 163°
2026-04-29 08:43 21.67120 39.16291 36 ft 31 kts 159°
2026-04-29 08:43 21.66914 39.16366 37 ft 31 kts 158°
2026-04-29 08:43 21.66713 39.16451 38 ft 31 kts 160°
2026-04-29 08:44 21.66504 39.16523 39 ft 31 kts 162°
2026-04-29 08:44 21.66304 39.16609 39 ft 30 kts 157°
2026-04-29 08:44 21.66187 39.16626 39 ft 8 kts 226°
2026-04-29 08:44 21.66161 39.16562 38 ft 16 kts 252°
2026-04-29 08:45 21.66209 39.16456 37 ft 15 kts 343°
2026-04-29 08:45 21.66307 39.16413 37 ft 25 kts 339°
2026-04-29 08:45 21.66675 39.16266 40 ft 88 kts 340°
2026-04-29 08:45 21.67436 39.15969 35 ft 143 kts 340°
2026-04-29 08:46 21.68514 39.15550 156 ft 182 kts 340°
2026-04-29 08:46 21.69780 39.15047 672 ft 204 kts 339°
2026-04-29 08:46 21.71143 39.14491 1355 ft 216 kts 339°
2026-04-29 08:46 21.72514 39.13951 2525 ft 203 kts 340°
2026-04-29 08:47 21.73816 39.13443 3647 ft 196 kts 340°
2026-04-29 08:47 21.75132 39.12928 4333 ft 211 kts 340°
2026-04-29 08:47 21.76566 39.12365 4991 ft 223 kts 340°
2026-04-29 08:47 21.78064 39.11775 5654 ft 237 kts 340°
2026-04-29 08:48 21.79699 39.11130 5985 ft 265 kts 340°
2026-04-29 08:48 21.81546 39.10401 6042 ft 300 kts 340°
2026-04-29 08:48 21.83602 39.09589 6034 ft 334 kts 340°
2026-04-29 08:48 21.85883 39.08687 6029 ft 364 kts 340°
2026-04-29 08:49 21.88359 39.07709 6075 ft 386 kts 340°
2026-04-29 08:49 21.90780 39.06751 7724 ft 360 kts 340°
2026-04-29 08:49 21.93077 39.05842 9243 ft 342 kts 340°
2026-04-29 08:49 21.95272 39.05167 10740 ft 322 kts 350°
2026-04-29 08:50 21.97425 39.05021 12214 ft 300 kts
2026-04-29 08:50 21.99377 39.05453 13685 ft 274 kts 20°
2026-04-29 08:50 22.01001 39.06279 15131 ft 241 kts 28°
2026-04-29 08:50 22.02342 39.07102 16575 ft 199 kts 30°
2026-04-29 08:51 22.03402 39.07778 17756 ft 161 kts 31°
2026-04-29 08:51 22.04440 39.08478 17565 ft 203 kts 34°
2026-04-29 08:51 22.05275 39.09115 17317 ft 237 kts 37°
2026-04-29 08:51 22.06690 39.10290 17188 ft 272 kts 36°
2026-04-29 08:52 22.08351 39.11471 17173 ft 300 kts 31°
2026-04-29 08:52 22.10214 39.12689 17164 ft 327 kts 31°
2026-04-29 08:52 22.12228 39.13994 17346 ft 346 kts 31°
2026-04-29 08:52 22.14330 39.15354 17802 ft 356 kts 31°
2026-04-29 08:53 22.16467 39.16737 18398 ft 360 kts 31°
2026-04-29 08:53 22.18622 39.18133 19023 ft 364 kts 31°
2026-04-29 08:53 22.20775 39.19527 19634 ft 367 kts 31°
2026-04-29 08:53 22.22986 39.20959 20224 ft 371 kts 31°
2026-04-29 08:54 22.25206 39.22397 20788 ft 374 kts 31°
2026-04-29 08:54 22.27452 39.23852 21371 ft 378 kts 31°
2026-04-29 08:54 22.29711 39.25317 21908 ft 381 kts 31°
2026-04-29 08:54 22.31997 39.26799 22441 ft 384 kts 31°
2026-04-29 08:55 22.34302 39.28293 22879 ft 390 kts 31°
2026-04-29 08:55 22.36661 39.29823 23045 ft 403 kts 31°
2026-04-29 08:55 22.39091 39.31399 23048 ft 419 kts 31°
2026-04-29 08:55 22.41669 39.33072 23048 ft 434 kts 31°
2026-04-29 08:56 22.44269 39.34759 23044 ft 449 kts 31°
2026-04-29 08:56 22.46994 39.36528 23047 ft 463 kts 31°
2026-04-29 08:56 22.49800 39.38349 23043 ft 477 kts 31°
2026-04-29 08:56 22.52687 39.40224 23042 ft 491 kts 31°
2026-04-29 08:57 22.55588 39.42109 23056 ft 475 kts 31°
2026-04-29 08:57 22.58357 39.43909 23070 ft 454 kts 31°
2026-04-29 08:57 22.61011 39.45634 23070 ft 437 kts 31°
2026-04-29 08:57 22.63552 39.47285 23065 ft 428 kts 31°
2026-04-29 08:58 22.66163 39.48891 23057 ft 434 kts 27°
2026-04-29 08:58 22.68936 39.50233 23053 ft 438 kts 21°
2026-04-29 08:58 22.71799 39.51429 23053 ft 443 kts 21°
2026-04-29 08:58 22.74700 39.52617 23051 ft 447 kts 20°
2026-04-29 08:59 22.77626 39.53814 23049 ft 450 kts 20°
2026-04-29 08:59 22.80573 39.55019 23056 ft 454 kts 20°
2026-04-29 08:59 22.83502 39.56218 23047 ft 457 kts 20°
2026-04-29 08:59 22.86483 39.57438 23053 ft 456 kts 20°
2026-04-29 09:00 22.89393 39.58629 23064 ft 436 kts 20°
2026-04-29 09:00 22.92174 39.59767 23066 ft 418 kts 20°
2026-04-29 09:00 22.94845 39.60861 23064 ft 402 kts 20°
2026-04-29 09:00 22.97429 39.61920 23062 ft 393 kts 20°
2026-04-29 09:01 22.99988 39.62968 23056 ft 392 kts 20°
2026-04-29 09:01 23.02543 39.64015 23054 ft 393 kts 20°
2026-04-29 09:01 23.05103 39.65065 23056 ft 393 kts 20°
2026-04-29 09:01 23.07660 39.66113 23057 ft 393 kts 20°
2026-04-29 09:02 23.10218 39.67162 23054 ft 393 kts 20°
2026-04-29 09:02 23.12749 39.68201 23054 ft 393 kts 20°
2026-04-29 09:02 23.15309 39.69252 23054 ft 393 kts 20°
2026-04-29 09:02 23.17875 39.70305 23054 ft 393 kts 20°
2026-04-29 09:03 23.20437 39.71357 23054 ft 394 kts 20°
2026-04-29 09:03 23.23011 39.72415 23054 ft 394 kts 20°
2026-04-29 09:03 23.25573 39.73467 23054 ft 394 kts 20°
2026-04-29 09:03 23.28139 39.74522 23054 ft 394 kts 20°
2026-04-29 09:04 23.30675 39.75564 23054 ft 395 kts 20°
2026-04-29 09:04 23.33340 39.76423 23056 ft 394 kts 11°
2026-04-29 09:04 23.36030 39.76696 23052 ft 394 kts 358°
2026-04-29 09:04 23.38761 39.76387 23054 ft 394 kts 350°
2026-04-29 09:05 23.41443 39.75756 23054 ft 394 kts 345°
2026-04-29 09:05 23.44083 39.74950 23057 ft 395 kts 343°
2026-04-29 09:05 23.46717 39.74065 23055 ft 395 kts 342°
2026-04-29 09:05 23.49332 39.73170 23054 ft 395 kts 342°
2026-04-29 09:06 23.51962 39.72282 23057 ft 395 kts 343°
2026-04-29 09:06 23.54593 39.71414 23053 ft 395 kts 343°
2026-04-29 09:06 23.57227 39.70564 23054 ft 395 kts 343°
2026-04-29 09:06 23.59868 39.69726 23054 ft 395 kts 344°
2026-04-29 09:07 23.62484 39.68902 23054 ft 396 kts 344°
2026-04-29 09:07 23.65130 39.68069 23056 ft 396 kts 344°
2026-04-29 09:07 23.67769 39.67239 22841 ft 392 kts 344°
2026-04-29 09:07 23.70375 39.66391 22359 ft 390 kts 341°
2026-04-29 09:08 23.72979 39.65606 21840 ft 389 kts 354°
2026-04-29 09:08 23.75649 39.65822 21428 ft 384 kts 16°
2026-04-29 09:08 23.78111 39.66849 21253 ft 374 kts 22°
2026-04-29 09:08 23.80498 39.67897 21103 ft 364 kts 20°
2026-04-29 09:09 23.82855 39.68791 20955 ft 354 kts 18°
2026-04-29 09:09 23.85182 39.69565 20819 ft 344 kts 16°
2026-04-29 09:09 23.87431 39.70246 20688 ft 335 kts 15°
2026-04-29 09:09 23.89610 39.70868 20577 ft 326 kts 14°
2026-04-29 09:10 23.91782 39.71467 20428 ft 317 kts 14°
2026-04-29 09:10 23.93866 39.72029 20207 ft 313 kts 14°
2026-04-29 09:10 23.95976 39.72591 19910 ft 310 kts 13°
2026-04-29 09:10 23.98071 39.73145 19588 ft 309 kts 13°
2026-04-29 09:11 24.00154 39.73694 19290 ft 307 kts 13°
2026-04-29 09:11 24.02233 39.74241 18942 ft 307 kts 13°
2026-04-29 09:11 24.04314 39.74788 18588 ft 307 kts 13°
2026-04-29 09:11 24.06387 39.75332 18241 ft 306 kts 13°
2026-04-29 09:12 24.08456 39.75876 17890 ft 305 kts 13°
2026-04-29 09:12 24.10526 39.76419 17536 ft 305 kts 13°
2026-04-29 09:12 24.12580 39.76959 17191 ft 304 kts 13°
2026-04-29 09:12 24.14647 39.77502 16743 ft 307 kts 13°
2026-04-29 09:13 24.16713 39.78045 16233 ft 311 kts 13°
2026-04-29 09:13 24.18856 39.78421 15736 ft 314 kts
2026-04-29 09:13 24.21040 39.78237 15234 ft 317 kts 349°
2026-04-29 09:13 24.23220 39.77732 14566 ft 324 kts 347°
2026-04-29 09:14 24.25461 39.77163 13707 ft 337 kts 348°
2026-04-29 09:14 24.27789 39.76656 12850 ft 343 kts 349°
2026-04-29 09:14 24.30124 39.76192 12057 ft 337 kts 349°
2026-04-29 09:14 24.32372 39.75726 11286 ft 329 kts 349°
2026-04-29 09:15 24.34571 39.75245 10526 ft 314 kts 348°
2026-04-29 09:15 24.36640 39.74771 9730 ft 292 kts 348°
2026-04-29 09:15 24.38597 39.74311 8523 ft 285 kts 348°
2026-04-29 09:15 24.40562 39.73867 6955 ft 291 kts 348°
2026-04-29 09:16 24.42550 39.73423 5389 ft 292 kts 349°
2026-04-29 09:16 24.44539 39.73023 4039 ft 287 kts 349°
2026-04-29 09:16 24.46412 39.72640 3475 ft 258 kts 349°
2026-04-29 09:16 24.48091 39.72301 3031 ft 233 kts 349°
2026-04-29 09:17 24.49604 39.72006 2731 ft 210 kts 350°
2026-04-29 09:17 24.50992 39.71749 2507 ft 201 kts 351°
2026-04-29 09:17 24.52325 39.71475 2377 ft 194 kts 348°
2026-04-29 09:17 24.53588 39.71193 2138 ft 176 kts 349°
2026-04-29 09:18 24.54677 39.70962 2086 ft 128 kts 349°
2026-04-29 09:18 24.55204 39.70851 2092 ft 59 kts 348°
2026-04-29 09:18 24.55583 39.70768 2098 ft 53 kts 349°
2026-04-29 09:18 24.55930 39.70699 2107 ft 49 kts 350°
2026-04-29 09:19 24.56224 39.70728 2115 ft 30 kts 18°
2026-04-29 09:19 24.56243 39.70810 2117 ft 11 kts 149°
2026-04-29 09:19 24.56089 39.70854 2113 ft 27 kts 172°
2026-04-29 09:19 24.56000 39.70952 2112 ft 13 kts 85°
2026-04-29 09:20 24.56009 39.71048 2113 ft 8 kts 111°
2026-04-29 09:20 24.55950 39.71082 2112 ft 21 kts 168°
2026-04-29 09:20 24.55765 39.71120 2107 ft 28 kts 167°
2026-04-29 09:20 24.55665 39.71181 2106 ft 7 kts 83°
2026-04-29 09:21 24.55676 39.71243 2106 ft 2 kts 77°
2026-04-29 09:21 24.55677 39.71248 2106 ft 0 kts 77°